Location: T�bingen+AIT
(48.5342°N, 9.0700°E)
Time: 22:37:47
(UTC+01:00)

Cosmos 2074 Rocket - Pass Details

Date: 14 September 2017
Orbit: 968 x 985 km, 82.9° (Epoch: 19 November)

Event Time Altitude Azimuth Distance (km) Brightness Sun altitude
Exits shadow 21:27:12 - 178° (S) 3,676 6.7 -18.1°
Rises 21:27:16 0° 178° (S) 3,656 6.7 -18.1°
Reaches altitude 10° 21:29:46 10° 176° (S) 2,710 6.0 -18.4°
Maximum altitude 21:35:55 69° 95° (E) 1,034 3.9 -19.3°
Drops below altitude 10° 21:42:06 10° 13° (NNE) 2,722 6.5 -20.2°
Sets 21:44:38 0° 11° (NNE) 3,672 7.3 -20.6°
